Flag for Canada Weather past 2 weeks in Halifax, Nova Scotia, Canada

Now
45 °F

Passing clouds.


Feels Like: 39 °F
Forecast: 48 / 58 °F
Wind: 10 mph from Northwest

Location: Halifax International Airport

Current Time: Sep 19, 2014 at 3:48:46 AM

Latest Report: Sep 19, 2014 at 3:00 AM


Visibility: 15 mi

Pressure: 30.02 "Hg

Humidity: 87%

Dew point: 41 °F

Location of HalifaxLocation

Historic Weather in Halifax — Graph

°F

Halifax temperature yesterday

Maximum temperature yesterday: 66 °F (at 4:00 PM)
Minimum temperature yesterday: 48 °F (at 4:00 AM)
Average temperature yesterday: 56 °F

Past Weeks' High & Low Weather Summary

 TemperatureHumidityPressure
High81 °F (Sep 4, 4:00 PM)100% (Sep 6, 7:00 AM)30.48 "Hg (Sep 6, 7:00 AM)
Low45 °F (Sep 16, 3:00 AM)28% (Sep 8, 6:00 PM)29.73 "Hg (Sep 7, 2:00 AM)
Average59 °F77%30.07 "Hg
* Reported Sep 4 2:00 AM — Sep 19 2:00 AM, Halifax, Weather by CustomWeather, © 2014

Note: Actual official high and low records may vary slightly from our data, if they occured in-between our weather recording intervals... More about our weather records

Advertising

Halifax weather history for previous 24 hours

 ConditionsComfort  
Time TempWeatherWind HumidityBarometerVisibility
2:00 AM
Sep 19
48 °FPassing clouds.8 mph94%30.01 "Hg15 mi
1:00 AM48 °FPassing clouds.9 mph94%29.99 "Hg15 mi
12:00 AM50 °FSprinkles. Overcast.13 mph88%29.99 "Hg10 mi
11:00 PM
Sep 18
50 °FDrizzle. Overcast.10 mph94%29.99 "Hg10 mi
10:00 PM52 °FOvercast.12 mph94%29.97 "Hg15 mi
9:00 PM55 °FPartly cloudy.12 mph94%29.94 "Hg15 mi
8:00 PM55 °FSprinkles. Partly sunny.7 mph94%29.92 "Hg15 mi
7:00 PM59 °FSprinkles. Partly sunny.6 mph88%29.90 "Hg15 mi
6:00 PM61 °FPartly sunny.7 mph77%29.90 "Hg15 mi
5:00 PM64 °FPartly sunny.8 mph64%29.89 "Hg15 mi
4:00 PM66 °FScattered clouds.13 mph56%29.89 "Hg15 mi
3:00 PM64 °FBroken clouds.10 mph64%29.90 "Hg15 mi
2:00 PM64 °FPartly sunny.8 mph68%29.91 "Hg15 mi
1:00 PM63 °FMostly cloudy.14 mph64%29.93 "Hg15 mi
12:00 PM61 °FBroken clouds.14 mph68%29.94 "Hg15 mi
11:00 AM61 °FPartly sunny.13 mph59%29.95 "Hg15 mi
10:00 AM57 °FPartly sunny.7 mph67%29.96 "Hg15 mi
9:00 AM54 °FPartly sunny.5 mph77%29.96 "Hg15 mi
8:00 AM50 °FScattered clouds.5 mph71%29.96 "Hg15 mi
7:00 AM48 °FPassing clouds.5 mph76%29.96 "Hg15 mi
6:00 AM48 °FPassing clouds.7 mph76%29.95 "Hg15 mi
5:00 AM48 °FClear.3 mph76%29.95 "Hg15 mi
4:00 AM48 °FClear.6 mph82%29.96 "Hg15 mi
3:00 AM52 °FClear.3 mph72%29.96 "Hg15 mi
Weather by CustomWeather, © 2014

See weather overviewHow to use our weather pages